Flag for Canada Weather past 2 weeks in Cranbrook, British Columbia, Canada

Now
21 °F

Passing clouds.


Feels Like: 21 °F
Forecast: 24 / 48 °F
Wind: No wind

Location: Cranbrook

Current Time: Mar 6, 2015 at 3:11:48 AM

Latest Report: Mar 6, 2015 at 2:00 AM


Visibility: 25 mi

Pressure: 30.40 "Hg

Humidity: 80%

Dew point: 16 °F

Location of CranbrookLocation

Historic Weather in Cranbrook — Graph

°F

Cranbrook temperature yesterday

Maximum temperature yesterday: 36 °F (at 5:00 PM)
Minimum temperature yesterday: 10 °F (at 4:00 AM)
Average temperature yesterday: 21 °F

Past Weeks' High & Low Weather Summary

 TemperatureHumidityPressure
High45 °F (Feb 25, 4:00 PM)93% (Feb 20, 9:00 AM)30.64 "Hg (Feb 20, 9:00 AM)
Low1 °F (Mar 4, 8:00 AM)25% (Feb 28, 4:00 PM)29.99 "Hg (Mar 2, 5:00 AM)
Average25 °F64%30.29 "Hg
* Reported Feb 19 2:00 AM — Mar 6 2:00 AM, Cranbrook, Weather by CustomWeather, © 2015

Note: Actual official high and low records may vary slightly from our data, if they occured in-between our weather recording intervals... More about our weather records

Advertising

Cranbrook weather history for previous 24 hours

 ConditionsComfort  
Time TempWeatherWind HumidityBarometerVisibility
2:00 AM
Fri, Mar 6
21 °FPassing clouds.No wind80%30.40 "Hg25 mi
1:00 AM19 °FPassing clouds.3 mph79%30.40 "Hg25 mi
12:00 AM21 °FPassing clouds.5 mph80%30.41 "Hg25 mi
11:00 PM
Thu, Mar 5
23 °FPassing clouds.No wind80%30.41 "Hg25 mi
10:00 PM25 °FPassing clouds.2 mph69%30.42 "Hg25 mi
9:00 PM25 °FPartly cloudy.3 mph69%30.41 "Hg25 mi
8:00 PM27 °FPassing clouds.2 mph64%30.41 "Hg25 mi
7:00 PM27 °FBroken clouds.3 mph64%30.41 "Hg25 mi
6:00 PM34 °FPartly sunny.2 mph44%30.37 "Hg25 mi
5:00 PM36 °FBroken clouds.3 mph44%30.37 "Hg25 mi
4:00 PM34 °FBroken clouds.No wind48%30.37 "Hg25 mi
3:00 PM34 °FBroken clouds.No wind44%30.39 "Hg25 mi
2:00 PM30 °FBroken clouds.2 mph51%30.41 "Hg25 mi
1:00 PM28 °FBroken clouds.3 mph55%30.43 "Hg25 mi
12:00 PM25 °FPartly sunny.No wind59%30.45 "Hg25 mi
11:00 AM21 °FPartly sunny.No wind74%30.47 "Hg25 mi
10:00 AM18 °FPartly sunny.No wind86%30.47 "Hg25 mi
9:00 AM14 °FPartly sunny.2 mph85%30.48 "Hg25 mi
8:00 AM12 °FPartly cloudy.No wind79%30.45 "Hg25 mi
7:00 AM10 °FPassing clouds.No wind79%30.44 "Hg25 mi
6:00 AM10 °FClear.2 mph85%30.42 "Hg25 mi
5:00 AM10 °FClear.2 mph85%30.41 "Hg25 mi
4:00 AM10 °FClear.3 mph85%30.40 "Hg25 mi
3:00 AM12 °FPassing clouds.No wind79%30.40 "Hg25 mi
Weather by CustomWeather, © 2015

See weather overviewHow to use our weather pages